{"data":{"norad_id":65273,"epoch":"2026-05-25T02:56:04.217856Z","epoch_age_seconds":67953,"freshness":"FRESH","line1":"1 65273U 25184A   26145.12227104  .00002077  00000+0  14790-3 0  9999","line2":"2 65273  97.4495 197.6615 0001581 102.7357 257.4047 15.05658302 42806","mean_motion":15.05658302,"eccentricity":0.0001581,"inclination_deg":97.4495,"raan_deg":197.6615,"arg_perigee_deg":102.7357,"mean_anomaly_deg":257.4047,"bstar":0.0001479,"rev_number":4280,"period_min":95.639229570694,"perigee_km":548.39043144713,"apogee_km":550.58094574126,"semimajor_km":6927.6226885942,"source":"CELESTRAK","updated_at":"2026-05-25T13:38:20.729124Z"}}